This demonstration page uses our WeatherBlox Daily Observations layout. Learn more.

Left ArrowRight Arrow

Hourly Observations for March 3, 2016

Temp ( °F °C ) Dew Point ( °F °C ) Humidity (%) Winds ( mph kmh ) Pressure ( in mb ) Visibility ( mi km ) Precip ( " mm )
12:54 am 00:54 Partly Cloudy 35 1.7 26 -3.3 70 70 NNW 16 26 29.92 1013 10 16 0.00 0.00
1:54 am 01:54 Clear 33 0.6 25 -3.9 72 72 NNW 15 24 29.93 1014 10 16 0.00 0.00
2:54 am 02:54 Clear 30 -1.1 24 -4.4 79 79 NNE 7 11 29.92 1013 10 16 0.00 0.00
3:54 am 03:54 Cloudy 33 0.6 25 -3.9 72 72 NNW 14 22 29.96 1015 10 16 0.00 0.00
4:54 am 04:54 Cloudy 33 0.6 25 -3.9 72 72 N 12 19 29.98 1015 10 16 0.00 0.03
5:54 am 05:54 Cloudy 34 1.1 26 -3.3 73 73 N 12 19 30.02 1017 10 16 0.00 0.00
6:54 am 06:54 Cloudy 33 0.6 26 -3.3 75 75 N 10 17 30.05 1018 10 16 0.00 0.00
7:54 am 07:54 Sunny 33 0.6 25 -3.9 72 72 NNW 9 15 30.09 1019 9 14 0.00 0.00
8:54 am 08:54 Sunny 36 2.2 26 -3.3 67 67 N 16 26 30.11 1020 10 16 0.00 0.00
9:54 am 09:54 Sunny 40 4.4 27 -2.8 60 60 NNW 13 20 30.11 1020 10 16 0.00 0.00
10:54 am 10:54 Mostly Sunny 44 6.7 28 -2.2 53 53 N 15 24 30.12 1020 10 16 0.00 0.00
11:54 am 11:54 Mostly Sunny 46 7.8 28 -2.2 50 50 N 12 19 30.12 1020 10 16 0.00 0.00
12:54 pm 12:54 Cloudy 45 7.2 28 -2.2 52 52 N 17 28 30.14 1021 10 16 0.00 0.00
1:54 pm 13:54 Mostly Cloudy 46 7.8 29 -1.7 51 51 N 15 24 30.12 1020 10 16 0.00 0.00
2:54 pm 14:54 Mostly Cloudy 45 7.2 28 -2.2 52 52 N 12 19 30.12 1020 10 16 0.00 0.00
3:54 pm 15:54 Mostly Cloudy 44 6.7 28 -2.2 53 53 NNW 15 24 30.14 1021 10 16 0.00 0.00
4:45 pm 16:45 Cloudy 44 6.7 29 -1.7 55 55 N 14 22 30.15 1021 9 14 0.00 0.00
4:54 pm 16:54 Cloudy 41 5 29 -1.7 62 62 N 13 20 30.15 1021 9 14 0.00 0.00
5:54 pm 17:54 Partly Cloudy 39 3.9 28 -2.2 65 65 NNE 14 22 30.17 1022 9 14 0.00 0.00
6:54 pm 18:54 Clear 31 -0.6 24 -4.4 76 76 NE 9 15 30.19 1022 9 14 0.00 0.00
7:54 pm 19:54 Clear 29 -1.7 23 -5 78 78 NE 6 9 30.20 1023 9 14 0.00 0.00
8:54 pm 20:54 Clear 29 -1.7 23 -5 78 78 ENE 6 9 30.20 1023 9 14 0.00 0.00
9:54 pm 21:54 Clear 29 -1.7 23 -5 78 78 E 6 9 30.19 1022 8 13 0.00 0.00
10:54 pm 22:54 Clear 27 -2.8 23 -5 85 85 Calm 30.19 1022 8 13 0.00 0.00
11:54 pm 23:54 Clear 25 -3.9 22 -5.6 88 88 Calm 30.16 1022 7 11 0.00 0.00

Powered by AerisWeather